Location: Hackbridge
(51.3833°N, 0.1500°W)
Time: 14:21:54
(UTC+00:00)

Cosmos 1626 - Pass Details

Date: 13 October 2019
Orbit: 492 x 496 km, 82.5° (Epoch: 17 November)

Event Time Altitude Azimuth Distance (km) Brightness Sun altitude
Rises 18:09:12 0° 345° (NNW) 2,598 6.0 -9.6°
Reaches altitude 10° 18:11:22 10° 340° (NNW) 1,710 5.1 -10.0°
Maximum altitude 18:15:00 51° 264° (W) 633 3.1 -10.5°
Drops below altitude 10° 18:18:36 10° 189° (S) 1,693 4.9 -11.1°
Sets 18:20:44 0° 184° (S) 2,570 5.8 -11.4°
